Renner Field-Goodland Municipal Airport Goodland US
ICAO: KGLD
IATA: GLD
Category: Medium
Scheduled Services: No

Elevation: 3656 ft
TransAlt. 18000 ft.

Airport Communications:
ASOS:121.025
DENVER CNTR:132.5
WICHITA RDO:122.4
CTAF/UNICOM:122.95

KGLD Zoom In..

If you have problems with the map follow the link
https://www.worldairports.se/pages/airport.php?
ICAO=KGLD

Runways:

(A) RW 05 length 3501 ft width 75 ft
---- / hdg 54

(B) RW 12 length 5499 ft width 100 ft
---- / hdg 125

(C) RW 17 length 1781 ft width 40 ft
---- / hdg 171

(D) RW 23 length 3501 ft width 75 ft
---- / hdg 234

(E) RW 30 length 5499 ft width 100 ft
ILS 108.90 / hdg 305

(F) RW 35 length 1781 ft width 40 ft
---- / hdg 351

Location; KGLD
Day. 24 / Time. 10.53 Zulu
* Altimeter: 30.00
* Temperature: 02° c. 35.6°f.
* Wind from: 300° Speed 11 kn.
Dewpoint: 01° c.
Visibility: 10 Statute Miles.
Clouds: Clear (automated report).

KGLD 241053Z AUTO 30011KT 10SM CLR 02/01 A3000 RMK AO2 SLP163 T00220011


Wind From 300°
Speed 11 kn.

 
 
jpsmedia.com for Web Design worldairports.se 2019   terms of use